COSMOS 2447 (GLONASS)

Satellite information

Favourite Embed

Satellite Type and Status

PAYLOADIN ORBIT

Key statistics

Satellite COSMOS 2447 (GLONASS) at a glance.

Uptime

6093

Days in orbit

Revolutions

≈ 2.1

Per day

Orbit

MEO

Medium Earth Orbit

Inclination

64.6

Latest

Satellite identification and parameters

Extended collection of information and parameters for COSMOS 2447 (GLONASS).

Object identification

Identified? True

Debris? False

Object name: COSMOS 2447 (GLONASS)

International designator: 2008-067A

Object number (NORAD): 33466

Object ID (CCSDS): 33466

Country: COMMONWEALTH OF INDEPENDENT STATES (CIS)

Current information (Y/N): Y

RCS size: LARGE

Orbital parameters

Period: 675.715 minutes

Inclination: 64.641 deg

SMA: 25507.571 km

Apoapsis: 19144.263 km

Periapsis: 19114.609 km

RAAN: 79.4749 deg

Eccentricy: 0.00058128

Argument of periapsis: 254.206 deg

Mean anomaly: 103.6089 deg

Mean motion: 2.13107677 rev/day

Mean motion (dot): -0.00000008 rev/day2

B* drag term: 0.0 1/REarth

Two-line elements (TLE)

Creation date: Aug. 27, 2025, 8:01 p.m.

Reference frame: TEME

Reference center: EARTH

Epoch: Aug. 27, 2025, 1:07 a.m. UTC

TLE line 0: 0 COSMOS 2447 (GLONASS)

TLE line 1: 1 33466U 08067A 25239.04715725 -.00000008 00000-0 00000-0 0 9994

TLE line 2: 2 33466 64.6410 79.4749 0005813 254.2060 103.6089 2.13107677129699

Live tracking on map

Real-time ground track for satellite COSMOS 2447 (GLONASS).

In-orbit conjunctions

There are no conjunctions computed for COSMOS 2447 (GLONASS), at the moment. Check back to stay up to date, as we update our databases every day.

Go to all conjunctions

Associated space launch

GLONASS navigation satellites

COSMOS 2447 (GLONASS) was lifted into orbit during the mission ‘Proton-M | Uragan-M 18 to 20’, on board a Proton-M space rocket.

The launch took place on Dec. 25, 2008, 10:43 a.m. from 81/24 (81P).

For more information about the launch, click the button.

Launch to space Proton-M | Uragan-M 18 to 20
Proton-M | Uragan-M 18 to 20

Agency: N/A

Status: Launch Successful

Launch date: Dec. 25, 2008, 10:43 a.m. UTC

Rocket: Proton-M

Launch pad: 81/24 (81P)

Location: Baikonur Cosmodrome, Republic of Kazakhstan

...

Latest news about this satellite

There are no fresh news available about this satellite. Check back as we update our databases every day.


Newsletter sign-up

Weekly statistics, charts and insights to help you stay on top of the space industry.